This demonstration page uses our WeatherBlox Daily Observations layout. Learn more.

Left ArrowRight Arrow

Hourly Observations for July 25, 2021

Temp ( °F °C ) Dew Point ( °F °C ) Humidity (%) Winds ( mph kmh ) Pressure ( in mb ) Visibility ( mi km ) Precip ( " mm )
12:53 am 00:53 Clear 84 28.9 61 16.1 46 46 SE 9 15 29.88 1012 10 16 0.00 0.00
1:53 am 01:53 Clear 82 27.8 65 18.3 56 56 SE 10 17 29.88 1012 10 16 0.00 0.00
2:53 am 02:53 Clear 80 26.7 65 18.3 60 60 SSE 5 7 29.88 1012 10 16 0.00 0.00
3:53 am 03:53 Clear 77 25 65 18.3 66 66 ESE 5 7 29.86 1011 10 16 0.00 0.00
4:53 am 04:53 Clear 77 25 64 17.8 64 64 ESE 3 6 29.89 1012 10 16 0.00 0.00
5:42 am 05:42 Clear 78 25.6 62 16.7 58 58 W 16 26 29.90 1013 10 16 0.00 0.00
5:53 am 05:53 Clear 77 25 62 16.7 60 60 WNW 15 24 29.91 1013 10 16 0.00 0.00
6:53 am 06:53 Clear 75 23.9 62 16.7 64 64 WNW 14 22 29.93 1013 10 16 0.00 0.00
7:53 am 07:53 Sunny 78 25.6 59 15 52 52 NNW 13 20 29.91 1013 10 16 0.00 0.00
8:53 am 08:53 Sunny 79 26.1 59 15 50 50 NNW 10 17 29.92 1013 10 16 0.00 0.00
9:53 am 09:53 Sunny 83 28.3 59 15 44 44 NNW 6 9 29.93 1013 10 16 0.00 0.00
10:53 am 10:53 Sunny 86 30 59 15 40 40 WSW 7 11 29.93 1013 10 16 0.00 0.00
11:53 am 11:53 Sunny 87 30.6 61 16.1 42 42 SW 8 13 29.92 1013 10 16 0.00 0.00
12:53 pm 12:53 Sunny 88 31.1 63 17.2 43 43 SSW 8 13 29.92 1013 10 16 0.00 0.00
1:53 pm 13:53 Sunny 90 32.2 62 16.7 39 39 SSE 7 11 29.90 1013 10 16 0.00 0.00
2:53 pm 14:53 Sunny 92 33.3 61 16.1 36 36 S 8 13 29.89 1012 10 16 0.00 0.00
3:53 pm 15:53 Sunny 94 34.4 60 15.6 32 32 S 7 11 29.86 1011 10 16 0.00 0.00
4:53 pm 16:53 Sunny 94 34.4 59 15 31 31 VRB 3 6 29.83 1010 10 16 0.00 0.00
5:53 pm 17:53 Sunny 96 35.6 59 15 29 29 SE 10 17 29.78 1009 10 16 0.00 0.00
6:53 pm 18:53 Sunny 96 35.6 59 15 29 29 ESE 7 11 29.78 1008 10 16 0.00 0.00
7:53 pm 19:53 Sunny 95 35 57 13.9 28 28 ESE 7 11 29.78 1008 10 16 0.00 0.00
8:53 pm 20:53 Sunny 93 33.9 58 14.4 31 31 SE 8 13 29.80 1009 10 16 0.00 0.00
9:53 pm 21:53 Clear 89 31.7 59 15 36 36 E 7 11 29.82 1010 10 16 0.00 0.00
10:53 pm 22:53 Clear 86 30 60 15.6 42 42 E 8 13 29.84 1011 10 16 0.00 0.00
11:53 pm 23:53 Clear 84 28.9 60 15.6 44 44 Calm 29.84 1011 10 16 0.00 0.00

Powered by AerisWeather